Location: *
(43.0409°N, 0.1694°E)
Time: 23:05:38
(UTC+00:00)

SL-16 R/B - Pass Details

Date: 03 October 2023
Orbit: 839 x 849 km, 71.0° (Epoch: 05 December)

Event Time Altitude Azimuth Distance (km) Brightness Sun altitude
Rises 04:27:17 0° 343° (NNW) 3,420 5.3 -17.4°
Reaches altitude 10° 04:30:06 10° 354° (N) 2,481 4.7 -16.9°
Maximum altitude 04:34:58 28° 53° (NE) 1,535 4.2 -16.0°
Drops below altitude 10° 04:39:50 10° 112° (ESE) 2,472 5.5 -15.1°
Sets 04:42:37 0° 124° (SE) 3,403 6.1 -14.6°
